Location: Shepherdstown, WV
(39.4326°N, 77.8042°W)
Time: 06:32:41
(UTC-04:00)

Vanguard 1 - Pass Details

Date: 06 August 2021
Orbit: 652 x 3831 km, 34.3° (Epoch: 24 September)

Event Time Altitude Azimuth Distance (km) Brightness Sun altitude
Rises 12:56:23 0° 265° (W) 3,036 12.6 66.6°
Reaches altitude 10° 12:58:28 10° 260° (W) 2,226 12.1 66.7°
Maximum altitude 13:03:16 50° 184° (S) 1,158 12.3 66.9°
Drops below altitude 10° 13:10:47 10° 112° (ESE) 3,451 13.1 67.0°
Sets 13:14:47 0° 108° (ESE) 4,922 13.8 67.1°
